Terug naar catalogus

STARLINK-37482

ActiefCommunicatieSSO
NORAD 68850·PAYLOAD·🇺🇸 United States

Gelanceerd Apr 26, 2026 vanaf Vandenberg Space Force Base

Loading…

Volgende Passages (komende 24 uur)

TLE

VersSource: CelesTrak SupGP

Epoch: Sep 15, 2026, 03:20 UTC

1 68850C 26094M   26258.13937500 -.00063641  00000+0 -19758-2 0  2580
2 68850  97.2836 271.3395 0001541  88.4208   7.1448 15.33467845    16

Volg STARLINK-37482 in realtime met AllMySat

Download on the App Store